When you browse on this site, cookies collect data to enhance your experience and personalize the content and advertising you see.
Visit our Privacy Policy to learn more. By continuing to use the site, you agree to this use of cookies and data.
  • In Czech Republic
  • List of Countries
  • For 7 days
  • Water Temperature
  • Satellite Maps
  • Weather Map
  • Weather Widgets
  • user-avatar
    Login

    Hourly Weather Cachungo

    Today, 21 July, Sunday

    Time Temperature Precipitation Wind Pressure Humidity
    00:00 +27°C° 0.2 mm 1 mps 758 mmHg 87%
    01:00 +27°C° 0.2 mm 1 mps 758 mmHg 88%
    02:00 +24°C° 0.2 mm 0 mps 758 mmHg 89%
    03:00 +24°C° 0.1 mm 0 mps 757 mmHg 89%
    04:00 +24°C° 0.1 mm 0 mps 757 mmHg 90%
    05:00 +24°C° 0.1 mm 0 mps 757 mmHg 90%
    06:00 +27°C° 0 mm 1 mps 758 mmHg 87%
    07:00 +28°C° 0 mm 1 mps 758 mmHg 83%
    08:00 +29°C° 0 mm 2 mps 759 mmHg 80%
    09:00 +30°C° 0 mm 2 mps 759 mmHg 74%
    10:00 +31°C° 0 mm 2 mps 759 mmHg 68%
    11:00 +32°C° 0 mm 2 mps 759 mmHg 62%
    12:00 +33°C° 0.1 mm 3 mps 758 mmHg 62%
    13:00 +33°C° 0.1 mm 3 mps 758 mmHg 62%
    14:00 +33°C° 0.1 mm 3 mps 757 mmHg 62%
    15:00 +31°C° 0.5 mm 3 mps 757 mmHg 65%
    16:00 +32°C° 0.5 mm 4 mps 757 mmHg 69%
    17:00 +30°C° 0.5 mm 4 mps 757 mmHg 72%
    18:00 +29°C° 0.1 mm 4 mps 757 mmHg 75%
    19:00 +28°C° 0.1 mm 3 mps 758 mmHg 78%
    20:00 +27°C° 0.1 mm 3 mps 758 mmHg 81%
    21:00 +27°C° 0.1 mm 2 mps 758 mmHg 83%
    22:00 +27°C° 0.1 mm 2 mps 758 mmHg 84%
    23:00 +27°C° 0.1 mm 2 mps 759 mmHg 85%

    Tomorrow, 22 July, Monday

    Time Temperature Precipitation Wind Pressure Humidity
    00:00 +26°C° 0 mm 2 mps 758 mmHg 86%
    01:00 +26°C° 0 mm 2 mps 758 mmHg 87%
    02:00 +26°C° 0 mm 2 mps 757 mmHg 88%
    03:00 +26°C° 0.1 mm 2 mps 757 mmHg 89%
    04:00 +26°C° 0.1 mm 1 mps 758 mmHg 89%
    05:00 +26°C° 0.1 mm 1 mps 758 mmHg 90%
    06:00 +26°C° 0.3 mm 2 mps 758 mmHg 89%
    07:00 +26°C° 0.3 mm 2 mps 759 mmHg 88%
    08:00 +27°C° 0.3 mm 3 mps 759 mmHg 87%
    09:00 +28°C° 0 mm 3 mps 759 mmHg 80%
    10:00 +29°C° 0 mm 2 mps 759 mmHg 74%
    11:00 +31°C° 0 mm 2 mps 758 mmHg 67%
    12:00 +30°C° 0 mm 2 mps 758 mmHg 68%
    13:00 +30°C° 0 mm 2 mps 757 mmHg 69%
    14:00 +30°C° 0 mm 1 mps 757 mmHg 70%
    15:00 +30°C° 0 mm 2 mps 756 mmHg 70%
    16:00 +30°C° 0 mm 4 mps 756 mmHg 69%
    17:00 +30°C° 0 mm 5 mps 755 mmHg 69%
    18:00 +29°C° 0 mm 4 mps 756 mmHg 73%
    19:00 +28°C° 0 mm 3 mps 756 mmHg 76%
    20:00 +27°C° 0 mm 3 mps 756 mmHg 80%
    21:00 +27°C° 0 mm 2 mps 757 mmHg 82%
    22:00 +27°C° 0 mm 2 mps 757 mmHg 83%
    23:00 +26°C° 0 mm 1 mps 757 mmHg 85%

    Day after tomorrow, 23 July, Tuesday

    Time Temperature Precipitation Wind Pressure Humidity
    00:00 +26°C° 0 mm 1 mps 757 mmHg 86%
    01:00 +26°C° 0 mm 1 mps 756 mmHg 88%
    02:00 +26°C° 0 mm 1 mps 756 mmHg 89%
    03:00 +25°C° 0 mm 1 mps 756 mmHg 90%
    04:00 +25°C° 0 mm 1 mps 756 mmHg 90%
    05:00 +25°C° 0 mm 1 mps 756 mmHg 91%
    06:00 +26°C° 0 mm 1 mps 756 mmHg 86%
    07:00 +28°C° 0 mm 1 mps 756 mmHg 81%
    08:00 +29°C° 0 mm 2 mps 757 mmHg 76%
    09:00 +30°C° 0 mm 2 mps 757 mmHg 70%
    10:00 +32°C° 0 mm 2 mps 757 mmHg 64%
    11:00 +34°C° 0 mm 2 mps 757 mmHg 58%
    12:00 +34°C° 0 mm 3 mps 756 mmHg 58%
    13:00 +34°C° 0 mm 3 mps 756 mmHg 59%
    14:00 +34°C° 0 mm 4 mps 755 mmHg 59%
    15:00 +33°C° 0 mm 4 mps 755 mmHg 63%
    16:00 +32°C° 0 mm 4 mps 755 mmHg 66%
    17:00 +30°C° 0 mm 4 mps 754 mmHg 70%
    18:00 +29°C° 0 mm 4 mps 755 mmHg 74%
    19:00 +28°C° 0 mm 3 mps 756 mmHg 77%
    20:00 +27°C° 0 mm 3 mps 756 mmHg 81%
    21:00 +27°C° 0 mm 3 mps 757 mmHg 82%
    22:00 +27°C° 0 mm 2 mps 757 mmHg 83%
    23:00 +27°C° 0 mm 2 mps 758 mmHg 83%

    24 July, Wednesday

    Time Temperature Precipitation Wind Pressure Humidity
    00:00 +27°C° 0 mm 2 mps 757 mmHg 84%
    01:00 +27°C° 0 mm 2 mps 756 mmHg 84%
    02:00 +27°C° 0 mm 2 mps 756 mmHg 84%
    03:00 +27°C° 0 mm 2 mps 756 mmHg 85%
    04:00 +27°C° 0 mm 1 mps 756 mmHg 85%
    05:00 +27°C° 0 mm 1 mps 756 mmHg 86%
    06:00 +27°C° 0 mm 1 mps 756 mmHg 83%
    07:00 +28°C° 0 mm 1 mps 757 mmHg 81%
    08:00 +28°C° 0 mm 1 mps 757 mmHg 78%
    09:00 +29°C° 0.1 mm 2 mps 757 mmHg 75%
    10:00 +30°C° 0.1 mm 2 mps 757 mmHg 71%
    11:00 +30°C° 0.1 mm 3 mps 757 mmHg 67%
    12:00 +29°C° 0.9 mm 2 mps 757 mmHg 71%
    13:00 +29°C° 0.9 mm 2 mps 757 mmHg 76%
    14:00 +28°C° 0.9 mm 2 mps 756 mmHg 80%
    15:00 +28°C° 0.4 mm 2 mps 756 mmHg 80%
    16:00 +28°C° 0.4 mm 2 mps 756 mmHg 80%
    17:00 +28°C° 0.4 mm 3 mps 756 mmHg 81%
    18:00 +27°C° 0.2 mm 2 mps 757 mmHg 84%
    19:00 +26°C° 0.2 mm 2 mps 757 mmHg 86%
    20:00 +26°C° 0.2 mm 2 mps 757 mmHg 89%
    21:00 +26°C° 0 mm 2 mps 757 mmHg 89%
    22:00 +26°C° 0 mm 1 mps 758 mmHg 89%
    23:00 +26°C° 0 mm 1 mps 758 mmHg 88%

    25 July, Thursday

    Time Temperature Precipitation Wind Pressure Humidity
    00:00 +26°C° 0.1 mm 1 mps 757 mmHg 89%
    01:00 +26°C° 0.1 mm 1 mps 757 mmHg 89%
    02:00 +26°C° 0.1 mm 1 mps 757 mmHg 90%
    03:00 +26°C° 0.1 mm 1 mps 757 mmHg 90%
    04:00 +26°C° 0.1 mm 1 mps 757 mmHg 90%
    05:00 +26°C° 0.1 mm 1 mps 757 mmHg 90%
    06:00 +27°C° 0 mm 1 mps 757 mmHg 86%
    07:00 +27°C° 0 mm 2 mps 758 mmHg 82%
    08:00 +28°C° 0 mm 2 mps 758 mmHg 77%
    09:00 +29°C° 0.1 mm 2 mps 758 mmHg 72%
    10:00 +30°C° 0.1 mm 2 mps 758 mmHg 68%
    11:00 +33°C° 0.1 mm 3 mps 758 mmHg 63%
    12:00 +33°C° 0.2 mm 3 mps 758 mmHg 63%
    13:00 +33°C° 0.2 mm 4 mps 757 mmHg 64%
    14:00 +33°C° 0.2 mm 4 mps 757 mmHg 65%
    15:00 +32°C° 0.2 mm 4 mps 757 mmHg 70%
    16:00 +29°C° 0.2 mm 4 mps 757 mmHg 74%
    17:00 +28°C° 0.2 mm 4 mps 756 mmHg 79%
    18:00 +28°C° 0 mm 3 mps 757 mmHg 81%
    19:00 +28°C° 0 mm 3 mps 757 mmHg 82%
    20:00 +27°C° 0 mm 2 mps 758 mmHg 84%
    21:00 +27°C° 0 mm 2 mps 758 mmHg 84%
    22:00 +27°C° 0 mm 2 mps 758 mmHg 85%
    23:00 +27°C° 0 mm 2 mps 759 mmHg 85%

    26 July, Friday

    Time Temperature Precipitation Wind Pressure Humidity
    00:00 +27°C° 0 mm 2 mps 758 mmHg 86%
    01:00 +26°C° 0 mm 2 mps 758 mmHg 87%
    02:00 +26°C° 0 mm 2 mps 758 mmHg 88%
    03:00 +26°C° 0 mm 2 mps 758 mmHg 89%
    04:00 +26°C° 0 mm 2 mps 758 mmHg 89%
    05:00 +26°C° 0 mm 1 mps 758 mmHg 89%
    06:00 +27°C° 0 mm 1 mps 758 mmHg 84%
    07:00 +28°C° 0 mm 2 mps 759 mmHg 80%
    08:00 +29°C° 0 mm 2 mps 759 mmHg 75%
    09:00 +30°C° 0 mm 2 mps 759 mmHg 72%
    10:00 +31°C° 0 mm 2 mps 759 mmHg 68%
    11:00 +31°C° 0 mm 2 mps 759 mmHg 64%
    12:00 +32°C° 0.1 mm 2 mps 758 mmHg 63%
    13:00 +33°C° 0.1 mm 3 mps 757 mmHg 62%
    14:00 +34°C° 0.1 mm 4 mps 757 mmHg 61%
    15:00 +33°C° 0.4 mm 4 mps 757 mmHg 65%
    16:00 +32°C° 0.4 mm 4 mps 756 mmHg 68%
    17:00 +30°C° 0.4 mm 4 mps 756 mmHg 72%
    18:00 +29°C° 0.2 mm 4 mps 757 mmHg 75%
    19:00 +29°C° 0.2 mm 4 mps 757 mmHg 78%
    20:00 +28°C° 0.2 mm 3 mps 757 mmHg 82%
    21:00 +28°C° 0 mm 3 mps 758 mmHg 82%
    22:00 +27°C° 0 mm 3 mps 758 mmHg 83%
    23:00 +27°C° 0 mm 2 mps 758 mmHg 83%
    Show more